RH
20 20 21 21 22 23 25 26 26 27 27 27 27 27 27 27 26 27 26 26 26 26 27 27 27 27 27 27 29 32 29 28 29 30 33 36 41 43 43 40 38 33 27 25 21 19 18 17 17 16 15 14
21 22 22 23 23 25 26 26 27 27 27 27 28 28 28 28 27 26 26 26 26 26 26 26 26 27 27 27 27 27 27 27 28 28 28 30 31 33 34 33 32 32 32 30 26 24 22 21 20 18 17 15
23 24 24 24 25 26 27 27 28 28 28 28 29 29 29 29 28 27 27 26 26 26 26 26 26 26 26 27 27 27 27 27 27 27 28 29 29 30 31 31 32 33 33 33 33 30 27 26 23 21 19 17
24 25 25 26 27 27 28 28 29 29 30 30 30 30 30 30 30 30 30 30 29 29 28 28 27 27 27 27 27 27 27 27 27 28 27 28 28 29 30 31 32 32 33 34 35 34 34 32 28 26 22 20
26 26 27 27 28 28 29 29 30 31 31 32 32 33 34 34 35 35 35 35 34 34 33 32 31 30 29 28 28 27 27 27 27 27 27 27 28 28 28 29 30 32 33 33 35 36 36 36 35 32 28 25
26 27 28 28 29 30 30 31 32 32 33 34 35 36 37 38 38 39 38 38 38 37 36 35 34 33 33 32 30 30 28 28 27 27 27 27 27 27 28 28 29 30 31 32 34 35 36 37 38 37 35 32
27 28 29 29 30 31 31 33 33 34 35 36 37 38 39 40 40 40 40 40 40 39 37 36 35 34 34 34 33 33 32 31 29 29 28 27 27 27 27 28 28 28 29 31 32 33 34 36 38 39 40 38
27 28 29 30 31 31 32 33 34 35 35 36 37 38 39 40 41 41 41 41 40 38 36 35 34 34 33 34 35 34 35 34 33 32 31 30 28 28 27 27 28 28 28 29 30 31 32 34 35 37 39 40
28 28 29 31 31 32 33 33 34 34 35 36 37 38 38 39 39 40 39 38 36 34 33 32 33 32 32 33 35 35 36 36 36 36 35 34 32 30 29 28 28 27 28 28 29 29 30 32 32 34 36 37
28 29 30 31 32 32 33 33 33 34 34 35 35 36 36 36 36 36 35 33 32 32 31 32 32 32 33 34 35 36 37 38 39 38 37 37 37 36 33 31 29 27 27 27 27 28 29 29 30 32 32 34
29 30 31 31 31 32 32 33 33 34 34 34 35 35 34 34 33 33 32 31 31 31 31 32 33 33 33 33 35 36 38 40 40 39 39 40 40 40 39 37 34 31 29 27 27 27 27 28 29 30 31 32
29 30 31 31 32 33 33 34 34 35 35 36 36 36 36 35 34 34 33 33 34 34 35 36 35 34 33 33 35 36 38 40 40 39 40 41 42 42 43 43 42 39 36 32 29 27 27 27 28 28 29 30
31 32 33 33 34 34 34 34 34 34 34 35 36 37 37 38 39 39 39 39 40 39 39 38 35 33 33 33 33 34 34 34 34 34 35 35 35 36 37 39 42 43 43 41 37 33 30 28 27 27 27 28
31 30 30 29 29 29 28 29 28 29 29 31 35 39 41 43 44 44 44 44 42 39 36 33 31 30 30 29 28 27 27 26 26 25 26 26 25 26 26 28 30 34 38 40 42 42 39 35 31 29 27 27
23 23 22 22 22 22 23 24 24 26 27 29 34 39 42 44 44 43 42 39 36 32 29 28 27 28 28 27 26 25 25 25 25 24 24 24 24 24 23 23 23 24 26 29 34 38 41 43 40 37 33 30
19 18 18 18 18 19 20 22 24 26 27 29 31 33 35 36 37 36 34 32 30 29 28 28 28 28 28 27 27 27 27 27 26 26 26 26 25 24 24 23 22 21 22 22 24 27 31 37 41 43 42 39
21 20 18 18 17 17 20 21 23 26 28 30 30 31 32 33 33 32 32 31 31 31 31 31 31 31 31 30 29 28 27 27 27 27 26 26 25 25 24 23 22 21 20 20 20 22 24 26 30 34 38 41
26 25 23 22 21 20 21 21 21 23 25 26 27 28 29 31 32 33 35 36 37 38 38 39 39 39 39 38 37 36 33 30 28 28 28 28 27 26 25 24 23 21 19 18 18 19 20 20 21 24 27 31
30 30 29 28 27 25 24 23 23 23 23 24 24 24 24 24 24 25 29 35 40 43 44 44 44 45 47 49 49 48 46 43 37 34 32 32 33 32 30 29 26 24 22 20 19 18 18 17 18 19 20 21
34 34 35 34 33 31 31 30 29 29 30 31 32 32 31 30 28 26 26 28 31 35 36 38 39 41 47 54 58 59 58 56 52 47 43 39 40 40 37 35 32 30 28 26 25 22 21 20 19 18 17 17
38 38 38 38 38 37 37 37 37 37 37 38 39 40 40 39 38 35 32 30 29 29 29 30 32 35 42 51 58 62 64 64 63 60 56 52 51 51 48 44 41 38 36 35 32 29 27 26 24 22 19 18
39 40 40 40 41 41 42 43 43 43 44 45 45 45 45 44 42 40 37 34 32 30 29 28 27 31 43 52 54 57 61 63 66 67 66 64 62 62 60 56 53 49 46 44 41 37 34 32 30 27 25 23
41 41 42 43 43 45 45 46 47 48 49 50 50 49 48 46 44 42 39 37 34 32 30 29 25 27 39 54 59 58 59 60 64 67 68 69 67 67 67 65 63 60 57 54 50 45 41 39 37 33 30 28
42 43 43 45 46 48 49 51 52 52 53 53 52 51 49 47 44 42 40 37 34 31 30 29 27 26 35 53 63 63 64 64 64 67 68 68 69 68 68 68 67 66 65 63 59 53 49 47 44 40 36 32
44 45 47 49 52 53 55 56 56 56 57 56 53 49 46 43 40 38 36 34 31 29 28 27 29 33 41 56 66 68 69 68 68 69 69 68 68 68 68 68 67 68 66 65 63 60 57 54 50 46 41 35
45 48 52 54 57 58 59 60 60 59 57 53 48 43 38 34 31 29 28 27 27 26 25 27 32 40 49 59 67 70 71 71 71 70 70 70 69 69 69 68 67 67 66 64 63 62 63 60 54 50 45 39
50 53 56 59 60 61 62 62 60 57 50 45 39 33 28 25 23 23 23 23 23 23 23 26 31 39 49 59 66 69 70 70 71 71 72 72 71 71 70 69 67 66 66 65 63 63 63 62 61 58 53 47
56 59 60 62 63 63 63 60 56 50 43 37 31 25 21 19 19 19 19 19 18 19 19 21 25 29 36 47 57 64 69 70 71 71 71 71 72 71 71 69 66 65 66 66 65 62 60 62 66 64 59 56
61 63 64 64 64 63 60 55 49 43 35 28 21 18 15 14 14 14 13 13 12 11 12 13 16 19 23 28 36 46 58 66 70 72 73 74 73 72 72 70 67 64 64 64 65 64 62 62 64 64 63 64
66 66 66 65 62 57 51 45 37 30 23 17 14 13 11 10 10 9 9 8 7 7 6 6 7 9 12 14 18 25 36 47 57 65 70 74 77 77 77 76 74 69 64 63 64 66 64 61 62 64 66 69
69 68 64 60 54 46 38 31 24 18 13 10 9 8 7 7 7 7 7 6 6 6 5 5 5 5 5 6 7 11 17 25 35 47 56 66 74 78 81 82 81 76 71 68 66 67 66 62 62 64 67 69
Wind_Speed
5 5 5 5 6 6 6 6 6 6 6 6 6 6 7 7 7 7 7 8 9 9 10 11 11 12 12 12 12 13 13 13 12 11 11 10 10 11 12 12 12 13 12 13 14 15 16 18 18 17 16 15
5 5 5 5 5 5 5 5 5 5 5 6 6 6 7 7 7 7 7 8 8 9 10 10 11 11 12 12 13 13 13 13 13 13 12 12 11 12 12 13 13 13 13 13 13 15 16 17 18 18 17 16
5 6 6 6 5 5 5 4 5 5 5 6 6 7 7 7 8 8 8 8 9 10 10 11 11 11 11 12 13 14 14 14 14 14 14 14 13 13 14 14 13 13 14 13 13 15 16 16 17 17 18 17
5 6 5 6 5 4 4 4 4 5 6 6 7 7 8 8 9 9 10 10 11 11 12 12 12 12 12 13 14 15 15 15 15 15 16 16 16 15 15 15 15 15 15 15 14 15 16 16 17 17 18 18
5 5 5 5 4 4 4 4 5 5 6 7 8 9 10 10 11 11 12 12 12 13 13 14 14 15 14 15 16 17 17 17 17 17 18 18 18 18 17 17 16 16 17 17 17 16 16 16 17 17 18 18
5 5 5 4 3 3 3 4 5 6 7 8 9 10 11 11 12 12 13 13 14 14 14 15 16 17 17 17 18 19 19 20 20 20 20 20 20 20 19 19 18 18 18 19 19 18 18 17 17 17 17 18
4 3 3 2 1 1 2 3 4 6 7 8 8 10 11 12 13 13 14 14 15 15 16 17 18 19 19 19 20 21 21 21 22 22 22 22 22 22 22 21 21 20 20 20 20 20 20 19 18 18 18 18
2 2 1 1 1 2 3 4 5 6 7 8 9 10 11 12 13 14 15 16 17 17 18 19 19 20 21 21 21 22 22 22 22 23 23 23 24 24 24 23 23 23 22 22 22 21 21 21 21 20 19 18
2 2 2 3 4 4 5 6 7 8 9 10 11 12 12 13 14 15 16 17 18 19 20 20 21 22 23 23 23 23 23 23 23 24 24 24 24 24 25 25 25 25 24 24 23 23 23 23 23 22 21 20
5 5 5 6 7 7 8 9 10 11 12 12 13 14 14 15 16 17 18 19 20 21 21 22 22 23 23 24 24 24 24 24 24 25 25 24 24 25 25 25 26 27 27 26 26 25 24 24 24 24 24 23
7 8 8 8 9 9 10 11 12 13 14 14 15 16 17 17 18 19 20 21 21 22 22 23 23 23 24 24 24 24 24 24 24 25 26 25 25 25 25 26 26 27 27 28 28 27 27 26 26 26 26 26
7 7 7 8 9 10 11 12 13 14 14 15 16 17 18 18 19 20 21 22 22 23 23 23 24 23 24 23 23 24 24 24 25 25 26 26 26 26 26 26 26 27 27 28 28 29 28 28 28 28 28 28
5 6 7 8 9 10 11 12 13 13 13 14 15 16 17 18 19 20 21 21 22 23 23 23 23 22 22 21 21 22 23 24 25 25 25 26 26 26 26 26 27 27 27 27 28 29 29 29 29 29 29 29
4 5 6 7 9 9 10 11 11 12 12 13 13 14 15 16 17 18 19 20 21 21 21 21 21 21 21 20 20 22 22 23 24 25 25 25 26 26 26 26 27 27 28 27 27 28 29 29 29 29 30 30
1 3 4 5 6 8 8 9 10 11 11 11 11 12 13 14 15 17 18 19 19 20 21 21 21 21 21 20 20 22 23 23 24 25 26 26 27 28 28 27 27 28 28 28 28 28 29 29 29 29 30 30
3 2 3 5 6 7 8 8 9 10 10 10 11 11 12 13 14 16 17 18 19 20 21 21 22 22 22 22 22 23 24 25 26 27 27 28 29 29 30 29 29 29 29 29 29 29 29 30 30 30 29 29
5 5 5 5 6 7 7 8 9 9 9 10 10 11 12 13 14 16 17 18 19 20 21 21 21 22 22 22 23 24 25 26 26 27 28 28 29 30 30 30 30 30 30 29 30 29 30 30 30 30 30 29
7 7 7 8 8 7 8 8 9 9 9 10 10 11 12 13 14 15 17 18 19 20 20 21 21 22 22 23 23 24 25 25 26 27 28 28 29 29 29 30 29 30 30 29 29 29 29 30 30 30 30 30
9 9 10 10 9 9 9 9 9 9 9 10 11 12 12 13 14 15 16 17 18 19 20 21 21 22 22 23 24 25 25 25 25 26 26 27 28 28 28 28 28 28 29 28 28 28 29 29 29 29 29 29
9 10 10 10 9 9 9 9 9 10 11 12 13 14 15 15 16 16 17 18 19 20 21 22 22 22 22 22 23 24 25 25 26 26 26 25 26 27 27 27 27 27 27 28 28 28 28 28 28 29 29 29
9 10 10 10 9 9 9 9 10 10 11 13 14 16 17 18 18 19 19 19 21 22 23 24 25 25 24 23 22 22 23 23 24 25 26 25 25 26 27 27 27 27 27 28 28 29 29 29 29 29 29 29
8 9 9 9 10 10 10 11 11 12 13 14 16 17 19 20 21 21 21 21 23 23 24 25 26 27 26 26 26 25 24 23 23 23 25 25 24 25 27 27 27 28 28 29 30 30 30 29 30 31 30 30
7 8 9 10 11 12 13 14 15 15 17 18 19 20 21 23 24 24 24 24 24 25 26 26 27 28 28 28 28 28 28 26 24 24 24 25 25 25 26 27 27 28 29 31 31 31 30 31 31 31 30 30
8 10 12 13 15 16 17 18 19 20 21 23 23 24 25 26 27 27 27 26 26 26 27 28 28 29 29 28 29 29 29 28 27 26 26 26 26 26 27 27 27 27 30 32 33 33 32 32 31 31 31 30
12 14 16 18 20 21 22 24 25 26 26 28 28 29 30 30 30 30 30 28 28 27 28 28 28 28 28 27 27 28 28 28 28 28 28 28 28 28 29 29 27 26 29 32 34 34 35 35 34 33 31 29
14 17 19 21 23 25 26 28 30 31 32 32 33 33 33 33 32 31 29 27 26 25 25 27 27 27 27 26 26 27 28 28 28 28 28 29 30 30 31 31 29 27 28 31 32 34 37 38 36 34 33 31
16 18 20 23 26 28 30 31 33 34 35 35 35 34 33 31 29 27 25 23 22 22 22 24 25 26 26 26 26 27 28 28 28 28 28 29 30 31 32 33 31 29 28 29 30 31 32 32 34 36 33 28
19 21 23 26 28 30 32 33 35 36 36 36 34 31 28 26 25 24 23 23 22 22 21 22 23 25 26 27 27 28 29 29 28 28 28 28 28 29 31 32 32 30 28 28 28 27 28 28 29 28 25 27
23 25 28 30 32 34 36 37 38 38 37 35 31 28 26 24 24 24 24 24 23 23 23 23 22 23 25 26 27 28 29 30 29 29 27 27 26 27 28 30 31 30 29 29 28 28 28 25 21 21 25 32
27 30 32 35 37 39 40 40 39 37 35 32 29 27 26 25 24 24 24 24 24 24 24 24 23 23 24 25 26 27 29 30 30 30 29 28 27 27 27 28 31 32 31 30 31 31 31 29 26 28 32 32
31 34 36 38 39 39 39 37 35 32 29 28 27 27 26 25 24 24 24 24 24 25 25 25 24 24 24 23 24 25 27 29 30 31 31 30 29 28 28 28 31 33 31 31 33 32 32 33 33 33 32 30
Wind_Direction
91 89 83 76 65 58 50 45 39 34 29 23 19 14 10 4 359 357 352 349 346 342 342 340 341 339 339 337 335 335 336 336 336 337 336 335 332 332 331 330 333 334 332 326 321 319 316 316 320 321 320 320
101 99 92 82 71 62 51 41 30 19 15 8 4 358 354 350 343 339 333 329 325 324 323 323 324 324 324 321 320 320 321 322 322 323 323 321 320 320 318 319 325 324 322 321 318 315 313 314 316 316 316 316
105 100 93 86 75 63 48 33 19 4 357 350 347 344 339 337 331 326 320 317 314 314 313 312 312 311 311 309 308 308 309 309 309 310 309 309 310 310 309 312 315 313 313 313 313 311 311 312 312 312 312 312
102 95 88 83 72 58 39 19 6 352 345 338 333 330 330 329 327 325 322 320 318 317 315 313 311 308 306 303 301 301 301 300 300 299 298 300 302 302 303 305 306 305 306 306 306 307 307 309 309 309 309 308
99 90 81 73 59 41 21 2 350 341 337 333 331 328 328 328 326 326 324 323 322 320 318 315 313 311 307 304 301 299 299 298 296 294 293 294 294 295 297 298 299 300 300 301 302 302 303 304 305 305 306 306
97 89 81 69 50 30 4 352 339 332 332 329 329 327 326 326 324 324 322 321 320 318 317 316 314 313 311 308 306 303 301 300 297 294 292 291 291 290 291 292 293 294 295 296 297 298 299 299 300 301 301 302
101 94 93 80 48 2 330 325 321 318 319 319 319 317 317 318 318 318 317 317 317 317 316 315 315 313 311 310 308 306 304 302 299 296 294 292 290 289 288 288 288 288 289 290 292 293 294 295 295 296 296 298
137 145 150 170 259 277 283 288 295 298 298 299 300 301 303 305 308 310 312 315 316 316 316 315 314 312 310 309 308 306 305 303 301 298 296 294 292 290 288 287 285 285 285 285 286 288 289 291 291 291 292 293
194 206 217 239 251 256 261 266 270 274 277 280 284 287 291 296 301 305 308 311 313 314 314 314 313 311 310 310 309 308 307 304 301 299 298 297 295 293 290 287 285 283 282 282 282 283 284 286 287 288 288 289
217 223 226 237 242 248 254 259 264 269 274 279 284 289 292 296 298 301 305 308 311 312 312 313 312 311 310 311 311 309 307 305 303 302 301 301 299 297 295 291 288 285 283 281 280 280 280 281 283 284 286 286
223 229 235 245 252 260 267 273 279 282 286 290 293 296 297 299 300 302 305 308 311 311 312 312 311 311 312 311 311 309 308 306 305 305 304 304 303 301 300 297 294 290 287 284 282 280 278 279 280 281 283 284
235 245 256 266 273 278 282 285 287 288 291 294 296 298 299 301 302 304 307 310 313 313 313 314 313 313 313 313 313 311 309 308 307 308 307 307 306 305 303 301 299 296 293 290 287 283 280 278 278 278 279 281
249 261 272 277 282 284 286 287 289 292 294 297 300 301 303 304 305 307 309 312 313 314 314 314 314 314 314 316 315 312 311 310 310 310 309 309 309 307 306 305 303 301 298 296 293 289 286 282 278 277 276 277
257 268 277 280 284 286 291 294 297 301 303 305 307 307 308 308 308 308 309 311 313 313 314 314 315 315 315 317 315 312 312 311 311 310 310 310 309 308 307 306 305 303 301 299 298 295 292 288 284 280 277 276
278 291 299 303 309 312 315 317 318 319 319 318 317 315 313 311 310 311 312 313 315 315 316 317 317 317 316 316 314 311 312 311 310 309 309 309 308 307 306 306 305 303 302 301 300 298 296 294 290 287 283 280
62 31 5 351 343 340 339 337 337 335 334 333 329 326 321 319 318 318 318 318 319 319 318 318 317 318 316 315 312 309 309 308 307 307 307 307 306 306 305 304 304 302 301 300 299 298 297 295 294 292 289 286
67 53 35 15 2 354 351 347 345 343 341 339 334 331 327 325 324 322 321 319 319 318 317 317 316 316 315 314 312 309 308 306 305 305 304 305 304 304 303 303 302 301 300 299 298 297 296 295 294 293 292 290
52 43 31 20 12 6 2 357 354 348 343 338 332 328 325 321 319 318 318 317 317 317 316 315 315 314 314 313 311 310 308 307 306 305 304 304 303 303 303 302 302 301 300 299 297 295 294 293 293 293 292 291
36 29 23 17 12 7 8 8 7 4 359 355 349 343 336 328 324 320 317 316 315 314 313 312 311 311 312 312 312 311 309 308 307 306 305 305 304 303 303 303 303 303 302 300 298 296 295 295 294 293 292 291
24 18 16 12 9 6 4 3 1 1 359 357 353 349 346 340 337 332 325 319 314 311 310 307 305 304 305 306 307 309 309 309 308 307 306 306 306 305 304 304 304 304 303 302 301 299 299 299 297 295 294 293
8 5 8 5 2 357 353 349 345 344 342 340 337 336 335 334 333 331 327 322 315 312 310 306 304 301 297 295 294 297 299 303 306 307 307 307 307 307 306 306 305 305 304 302 301 299 300 301 299 298 297 296
356 356 356 352 348 343 339 337 333 330 327 326 326 325 325 325 324 323 321 318 313 310 308 305 303 298 293 288 286 286 287 290 295 299 302 303 304 306 306 306 306 306 305 303 301 300 300 299 298 298 298 297
340 337 334 330 328 327 325 324 324 322 321 321 321 321 321 320 319 318 317 314 311 307 304 301 298 294 289 285 284 283 283 284 285 286 289 293 296 298 300 302 304 305 305 303 302 301 300 299 297 297 296 296
314 314 314 316 319 321 323 323 323 322 322 321 320 319 318 317 316 315 313 311 307 303 299 296 292 289 286 283 282 282 282 282 282 281 281 284 287 289 292 294 298 301 302 301 300 301 301 299 298 297 296 295
315 318 320 324 326 328 329 328 326 324 323 322 321 320 318 316 313 311 310 308 305 301 296 292 288 286 284 281 281 281 281 281 281 281 280 281 282 285 287 288 290 294 297 298 300 302 302 299 299 298 297 295
319 323 326 328 328 328 328 326 325 324 324 323 322 321 318 316 313 311 310 309 307 303 297 292 288 286 284 282 281 280 280 281 281 281 281 281 282 283 283 283 285 287 292 295 298 302 302 302 302 300 298 298
317 321 323 324 325 324 324 324 323 323 323 322 321 320 319 318 316 315 315 314 311 306 301 295 291 287 285 283 282 282 281 281 281 281 281 281 282 283 282 280 281 282 285 288 294 298 297 301 305 304 304 302
317 319 320 320 320 320 319 319 319 320 319 320 320 320 321 320 320 319 318 316 313 309 305 300 295 290 287 284 282 282 282 281 281 280 281 281 281 282 281 281 280 279 279 281 286 289 289 295 301 300 302 303
318 318 317 316 316 315 316 317 319 321 321 323 323 323 324 323 321 319 317 315 314 311 309 305 300 295 291 287 284 281 280 280 279 279 279 280 279 279 281 282 281 279 276 276 277 277 279 285 289 287 294 301
320 320 320 320 320 321 322 323 324 325 325 326 325 324 324 322 320 318 316 315 314 312 310 308 306 302 298 294 290 285 282 279 278 277 276 276 277 277 278 281 282 279 276 277 275 273 272 272 273 280 289 294
322 322 323 324 325 326 325 325 325 325 325 325 324 323 322 320 320 320 318 316 315 315 314 313 311 310 307 304 299 293 287 283 280 277 275 274 274 276 277 278 280 280 279 278 275 273 272 270 271 274 277 280